Weather History for EBFN - January, 2013

Change the Weather History Date:

Friday, January 18, 2013

  Actual Average Record
Temperature  
Mean Temperature 22 °F -  
Max Temperature 30 °F 43 °F 55 °F (2007)
Min Temperature 13 °F 36 °F 13 °F (2013)
Degree Days  
Heating Degree Days 44    
Moisture  
Dew Point 23 °F    
Average Humidity 89    
Maximum Humidity 100    
Minimum Humidity 80    
Precipitation  
Precipitation 0.00 in - - ()
Sea Level Pressure  
Sea Level Pressure 29.76 in    
Wind  
Wind Speed 9 mph ()    
Max Wind Speed 15 mph    
Max Gust Speed -    
Visibility 2.5 miles    
Events Snow    
Averages and records for this station are not official NWS values.
T = Trace of Precipitation, MM = Missing Value Source: Averaged Metar Reports

Daily Weather History Graph

Daily Weather History Graph

Search for Another Location

Airport or City:

Trip Planner

Search our weather history database for the weather conditions in past years. The results will help you decide how hot, cold, wet, or windy it might be!

Date:

Astronomy

Jan. 18, 2013 Rise Set
Actual Time 8:43 AM CET 5:16 PM CET
Civil Twilight 8:06 AM CET 5:54 PM CET
Nautical Twilight 7:24 AM CET 6:35 PM CET
Astronomical Twilight 6:45 AM CET 7:14 PM CET
Moon 11:19 AM CET (1/18) 12:43 AM CET (1/18)
Length of Visible Light 9h 48m
Length of Day
8h 32m
Waxing Crescent, 45% of the Moon is Illuminated
Jan 18
Waxing Crescent
Jan 19
First Quarter
Jan 27
Full
Feb 3
Last Quarter
Feb 10
New

Hourly Weather History & Observations

Time (CET) Temp. Windchill Dew Point Humidity Pressure Visibility Wind Dir Wind Speed Gust Speed Precip Events Conditions
12:25 AM 21.2 °F 12.6 °F 21.2 °F 100% 30.01 in 0.9 mi SE 6.9 mph - N/A   Mostly Cloudy
12:55 AM 21.2 °F 12.6 °F 21.2 °F 100% 29.98 in 0.9 mi SE 6.9 mph - N/A   Mostly Cloudy
1:00 AM 21 °F - 20 °F 97% 30.01 in 1 mi SE 6.7 mph - -   Mist
1:20 AM 21.2 °F 11.7 °F 21.2 °F 100% 29.98 in 1.4 mi SE 8.1 mph - N/A   Mostly Cloudy
1:25 AM 21.2 °F 11.7 °F 21.2 °F 100% 29.98 in 1.4 mi SE 8.1 mph - N/A   Mostly Cloudy
1:55 AM 21.2 °F 10.9 °F 21.2 °F 100% 29.98 in 1.4 mi SE 9.2 mph - N/A   Mostly Cloudy
2:25 AM 21.2 °F 12.6 °F 21.2 °F 100% 29.95 in 1.3 mi SSE 6.9 mph - N/A   Mostly Cloudy
2:55 AM 21.2 °F 11.7 °F 21.2 °F 100% 29.95 in 1.2 mi SSE 8.1 mph - N/A   Mostly Cloudy
3:25 AM 21.2 °F 10.9 °F 21.2 °F 100% 29.95 in 1.2 mi SE 9.2 mph - N/A   Mostly Cloudy
3:55 AM 23.0 °F 13.1 °F 21.2 °F 93% 29.95 in - SE 9.2 mph - N/A   Mostly Cloudy
4:00 AM 22 °F - 21 °F 92% 29.96 in 2 mi SE 8.9 mph - -   Mist
4:25 AM 23.0 °F 14.7 °F 21.2 °F 93% 29.95 in - SE 6.9 mph - N/A   Mostly Cloudy
4:55 AM 23.0 °F 13.9 °F 21.2 °F 93% 29.92 in - SE 8.1 mph - N/A   Mostly Cloudy
5:25 AM 23.0 °F 13.9 °F 21.2 °F 93% 29.92 in - SE 8.1 mph - N/A   Mostly Cloudy
5:36 AM 23.0 °F 14.7 °F 21.2 °F 93% 29.92 in - SE 6.9 mph - N/A   Mostly Cloudy
5:55 AM 23.0 °F 13.9 °F 21.2 °F 93% 29.92 in - SE 8.1 mph - N/A   Mostly Cloudy
6:25 AM 23.0 °F 13.9 °F 21.2 °F 93% 29.89 in - SSE 8.1 mph - N/A   Mostly Cloudy
6:55 AM 23.0 °F 13.1 °F 21.2 °F 93% 29.89 in - SE 9.2 mph - N/A   Mostly Cloudy
7:00 AM 24 °F - 22 °F 88% 29.91 in 3 mi SE 8.9 mph - -   Mist
7:25 AM 24.8 °F 16.1 °F 21.2 °F 86% 29.89 in 3.1 mi ESE 8.1 mph - N/A   Mostly Cloudy
7:39 AM 24.8 °F 16.9 °F 21.2 °F 86% 29.86 in 3.1 mi ESE 6.9 mph - N/A   Mostly Cloudy
7:55 AM 24.8 °F 16.9 °F 23.0 °F 93% 29.86 in 2.8 mi ESE 6.9 mph - N/A   Mostly Cloudy
8:25 AM 24.8 °F 15.3 °F 23.0 °F 93% 29.86 in - ESE 9.2 mph - N/A   Mostly Cloudy
8:26 AM 24.8 °F 15.3 °F 23.0 °F 93% 29.86 in - ESE 9.2 mph - N/A   Mostly Cloudy
8:55 AM 24.8 °F 15.3 °F 21.2 °F 86% 29.83 in 2.5 mi SE 9.2 mph - N/A   Mostly Cloudy
9:25 AM 24.8 °F 15.3 °F 23.0 °F 93% 29.83 in 2.5 mi SE 9.2 mph - N/A   Mostly Cloudy
9:55 AM 24.8 °F 14.6 °F 23.0 °F 93% 29.80 in - ESE 10.4 mph - N/A   Mostly Cloudy
10:00 AM 25 °F - 23 °F 87% 29.83 in 2 mi ESE 11.2 mph - -   Mist
10:25 AM 24.8 °F 14.6 °F 23.0 °F 93% 29.80 in - ESE 10.4 mph - N/A   Mostly Cloudy
10:40 AM 24.8 °F 14.0 °F 23.0 °F 93% 29.80 in - ESE 11.5 mph - N/A   Mostly Cloudy
10:55 AM 26.6 °F 15.7 °F 23.0 °F 86% 29.80 in - SE 12.7 mph - N/A   Mostly Cloudy
11:05 AM 26.6 °F 15.2 °F 23.0 °F 86% 29.80 in 2.5 mi SE 13.8 mph - N/A   Mostly Cloudy
11:25 AM 26.6 °F 15.7 °F 23.0 °F 86% 29.80 in - SE 12.7 mph - N/A   Mostly Cloudy
11:55 AM 26.6 °F 15.7 °F 23.0 °F 86% 29.77 in - ESE 12.7 mph - N/A   Mostly Cloudy
12:25 PM 26.6 °F 16.2 °F 23.0 °F 86% 29.74 in - ESE 11.5 mph - N/A   Mostly Cloudy
12:55 PM 26.6 °F 16.2 °F 24.8 °F 93% 29.74 in - ESE 11.5 mph - N/A   Mostly Cloudy
1:00 PM 27 °F - 24 °F 85% 29.75 in 2 mi ESE 11.2 mph - -   Mist
1:06 PM 26.6 °F 16.2 °F 24.8 °F 93% 29.71 in - ESE 11.5 mph - N/A   Mostly Cloudy
1:25 PM 28.4 °F 18.5 °F 24.8 °F 86% 29.71 in - East 11.5 mph - N/A   Mostly Cloudy
1:55 PM 28.4 °F 18.5 °F 24.8 °F 86% 29.71 in - East 11.5 mph - N/A   Mostly Cloudy
2:25 PM 28.4 °F 18.0 °F 24.8 °F 86% 29.68 in 1.8 mi ESE 12.7 mph - N/A   Mostly Cloudy
2:55 PM 28.4 °F 18.5 °F 24.8 °F 86% 29.68 in 1.7 mi ESE 11.5 mph - N/A   Mostly Cloudy
3:25 PM 28.4 °F 17.5 °F 24.8 °F 86% 29.65 in 1.6 mi ESE 13.8 mph - N/A   Mostly Cloudy
3:55 PM 28.4 °F 17.5 °F 26.6 °F 93% 29.65 in 1.6 mi East 13.8 mph - N/A   Scattered Clouds
4:00 PM 29 °F - 26 °F 83% 29.66 in 2 mi East 13.4 mph - -   Mist
4:25 PM 28.4 °F 18.5 °F 24.8 °F 86% 29.62 in 1.5 mi East 11.5 mph - N/A   Mostly Cloudy
4:55 PM 28.4 °F 18.0 °F 24.8 °F 86% 29.62 in 1.8 mi East 12.7 mph - N/A   Mostly Cloudy
5:25 PM 28.4 °F 18.0 °F 24.8 °F 86% 29.59 in - East 12.7 mph - N/A   Mostly Cloudy
5:55 PM 28.4 °F 17.5 °F 24.8 °F 86% 29.59 in - East 13.8 mph - N/A   Mostly Cloudy
6:25 PM 28.4 °F 17.5 °F 24.8 °F 86% 29.59 in - East 13.8 mph - N/A   Mostly Cloudy
6:55 PM 30.2 °F 19.3 °F 24.8 °F 80% 29.56 in 2.8 mi East 15.0 mph - N/A   Mostly Cloudy
7:00 PM 29 °F - 25 °F 80% 29.59 in 3 mi East 13.4 mph - -   Mist
7:05 PM 30.2 °F 19.3 °F 24.8 °F 80% 29.56 in 3.1 mi East 15.0 mph - N/A   Mostly Cloudy
7:25 PM 30.2 °F 19.3 °F 24.8 °F 80% 29.56 in 3.1 mi East 15.0 mph - N/A   Mostly Cloudy
7:55 PM 30.2 °F 19.8 °F 24.8 °F 80% 29.56 in 3.1 mi East 13.8 mph - N/A   Mostly Cloudy
8:25 PM 30.2 °F 19.3 °F 24.8 °F 80% 29.56 in 3.7 mi East 15.0 mph - N/A   Mostly Cloudy
8:55 PM 30.2 °F 20.2 °F 24.8 °F 80% 29.56 in 3.7 mi East 12.7 mph - N/A   Mostly Cloudy
9:25 PM 28.4 °F 18.5 °F 24.8 °F 86% 29.53 in 3.7 mi East 11.5 mph - N/A   Mostly Cloudy
9:55 PM 28.4 °F 18.0 °F 24.8 °F 86% 29.53 in 3.7 mi East 12.7 mph - N/A   Mostly Cloudy
10:00 PM 29 °F - 25 °F 80% 29.55 in 4 mi East 11.2 mph - -   Scattered Clouds
10:25 PM 28.4 °F 18.5 °F 24.8 °F 86% 29.53 in 4.3 mi East 11.5 mph - N/A   Mostly Cloudy
10:55 PM 28.4 °F 18.5 °F 24.8 °F 86% 29.50 in 4.3 mi East 11.5 mph - N/A   Mostly Cloudy
11:25 PM 28.4 °F 18.0 °F 24.8 °F 86% 29.50 in 4.3 mi East 12.7 mph - N/A   Mostly Cloudy
11:47 PM 30.2 °F 20.2 °F 24.8 °F 80% 29.50 in 3.7 mi East 12.7 mph - N/A Snow Snow Grains
11:55 PM 30.2 °F 20.2 °F 24.8 °F 80% 29.50 in 3.7 mi East 12.7 mph - N/A Snow Snow Grains